Location: Colonia Mina de C?rbuni
(46.1667°N, 22.7167°E)
Time: 06:59:00
(UTC+00:00)

Tiros 1 - Pass Details

Date: 28 April 2024
Orbit: 624 x 657 km, 48.4° (Epoch: 26 May)

Event Time Altitude Azimuth Distance (km) Brightness Sun altitude
Exits shadow 01:45:06 23° 253° (WSW) 1,346 8.2 -14.9°
Maximum altitude 01:46:48 29° 217° (SW) 1,144 7.9 -14.7°
Drops below altitude 10° 01:50:45 10° 157° (SSE) 1,987 9.5 -14.1°
Sets 01:53:16 0° 146° (SSE) 2,889 10.4 -13.8°
